Weather History for Kleine Brogel, Belgium

Change the Weather History Date:

Tuesday, May 21, 2013

  Actual Average Record
Temperature  
Mean Temperature 50 °F -  
Max Temperature 57 °F 65 °F 78 °F (2012)
Min Temperature 44 °F 52 °F 41 °F (2008)
Degree Days  
Heating Degree Days 14    
Moisture  
Dew Point 49 °F    
Average Humidity 96    
Maximum Humidity 100    
Minimum Humidity 80    
Precipitation  
Precipitation 0.12 in - - ()
Sea Level Pressure  
Sea Level Pressure 29.84 in    
Wind  
Wind Speed 3 mph ()    
Max Wind Speed 9 mph    
Max Gust Speed -    
Visibility 3.8 miles    
Events Fog , Rain    
Averages and records for this station are not official NWS values.
T = Trace of Precipitation, MM = Missing Value Source: Averaged Metar Reports

Daily Weather History Graph

Daily Weather History Graph

Search for Another Location

Airport:

Trip Planner

Search our weather history database for the weather conditions in past years. The results will help you decide how hot, cold, wet, or windy it might be!

Date:

Astronomy

May. 21, 2013 Rise Set
Actual Time 5:39 AM CEST 9:30 PM CEST
Civil Twilight 4:57 AM CEST 10:13 PM CEST
Nautical Twilight 3:58 AM CEST 11:12 PM CEST
Astronomical Twilight 2:18 AM CEST 12:57 AM CEST
Moon 5:01 PM CEST (5/21) 3:28 AM CEST (5/21)
Length of Visible Light 17h 16m
Length of Day
15h 51m
Waxing Gibbous, 81% of the Moon is Illuminated
May 21
Waxing Gibbous
May 25
Full
May 31
Last Quarter
Jun 8
New
Jun 16
First Quarter

Hourly Weather History & Observations

Time (CEST) Temp. Windchill Dew Point Humidity Pressure Visibility Wind Dir Wind Speed Gust Speed Precip Events Conditions
12:25 AM 50.0 °F - 50.0 °F 100% 29.83 in 3.7 mi Calm Calm - N/A   Mostly Cloudy
12:55 AM 50.0 °F - 50.0 °F 100% 29.83 in 3.7 mi Variable 2.3 mph - N/A   Mostly Cloudy
1:25 AM 50.0 °F - 50.0 °F 100% 29.83 in 3.7 mi Variable 1.2 mph - N/A Rain Light Rain
1:55 AM 48.2 °F - 48.2 °F 100% 29.83 in 3.7 mi Calm Calm - N/A   Scattered Clouds
2:00 AM 48 °F - 48 °F 100% 29.84 in 4 mi Calm Calm - - Rain Light Rain
2:25 AM 48.2 °F - 48.2 °F 100% 29.83 in 3.7 mi Calm Calm - N/A   Mostly Cloudy
2:55 AM 46.4 °F - 46.4 °F 100% 29.83 in 3.7 mi Variable 1.2 mph - N/A   Mostly Cloudy
3:25 AM 48.2 °F - 48.2 °F 100% 29.83 in 3.1 mi Calm Calm - N/A   Mostly Cloudy
3:55 AM 48.2 °F - 48.2 °F 100% 29.80 in 3.7 mi Variable 1.2 mph - N/A   Mostly Cloudy
3:58 AM 48.2 °F - 48.2 °F 100% 29.80 in 2.5 mi Variable 1.2 mph - N/A   Mostly Cloudy
4:25 AM 46.4 °F - 46.4 °F 100% 29.80 in 2.5 mi Variable 1.2 mph - N/A   Mostly Cloudy
4:27 AM 46.4 °F - 46.4 °F 100% 29.80 in 1.2 mi Variable 1.2 mph - N/A   Mostly Cloudy
4:55 AM 46.4 °F - 46.4 °F 100% 29.80 in 1.2 mi Calm Calm - N/A   Mostly Cloudy
4:58 AM 46.4 °F - 46.4 °F 100% 29.80 in 0.6 mi Calm Calm - N/A   Partly Cloudy
5:00 AM 46 °F - 46 °F 100% 29.82 in 1 mi Calm Calm - -   Mostly Cloudy
5:00 AM 46.4 °F - 46.4 °F 100% 29.80 in 0.1 mi Calm Calm - N/A   Mostly Cloudy
5:03 AM 44.6 °F - 44.6 °F 100% 29.80 in 0.1 mi Variable 1.2 mph - N/A   Mostly Cloudy
5:09 AM 44.6 °F - 44.6 °F 100% 29.80 in 0.6 mi Variable 1.2 mph - N/A   Scattered Clouds
5:25 AM 44.6 °F - 44.6 °F 100% 29.80 in 0.3 mi Calm Calm - N/A Fog Fog
5:29 AM 44.6 °F - 44.6 °F 100% 29.80 in 0.1 mi Calm Calm - N/A   Partly Cloudy
5:55 AM 44.6 °F - 44.6 °F 100% 29.80 in 0.3 mi Calm Calm - N/A   Scattered Clouds
6:20 AM 46.4 °F - 46.4 °F 100% 29.80 in 0.7 mi Calm Calm - N/A   Mostly Cloudy
6:25 AM 46.4 °F - 46.4 °F 100% 29.80 in 0.9 mi Calm Calm - N/A Fog Fog
6:36 AM 46.4 °F - 46.4 °F 100% 29.80 in 1.2 mi Calm Calm - N/A   Mostly Cloudy
6:53 AM 46.4 °F - 46.4 °F 100% 29.80 in 2.8 mi Variable 1.2 mph - N/A   Mostly Cloudy
7:16 AM 48.2 °F - 48.2 °F 100% 29.80 in 3.7 mi Variable 2.3 mph - N/A   Mostly Cloudy
7:17 AM 48.2 °F - 48.2 °F 100% 29.80 in 3.7 mi Variable 1.2 mph - N/A   Mostly Cloudy
7:25 AM 48.2 °F - 48.2 °F 100% 29.80 in 3.7 mi Variable 1.2 mph - N/A   Mostly Cloudy
7:48 AM 48.2 °F - 48.2 °F 100% 29.80 in 5.0 mi Calm Calm - N/A   Mostly Cloudy
7:55 AM 48.2 °F - 48.2 °F 100% 29.80 in 5.0 mi Calm Calm - N/A   Mostly Cloudy
8:00 AM 49 °F - 49 °F 99% 29.83 in 5 mi Calm Calm - -   Partly Cloudy
8:25 AM 50.0 °F - 50.0 °F 100% 29.83 in 6.2 mi Variable 2.3 mph - N/A   Mostly Cloudy
8:55 AM 51.8 °F - 50.0 °F 94% 29.83 in 5.6 mi Variable 2.3 mph - N/A   Mostly Cloudy
9:05 AM 51.8 °F - 50.0 °F 94% 29.83 in 5.0 mi Variable 2.3 mph - N/A   Mostly Cloudy
9:25 AM 53.6 °F - 50.0 °F 88% 29.83 in 6.2 mi Variable 1.2 mph - N/A   Mostly Cloudy
9:55 AM 53.6 °F - 50.0 °F 88% 29.83 in 6.2 mi Variable 1.2 mph - N/A   Mostly Cloudy
10:25 AM 55.4 °F - 50.0 °F 82% 29.83 in 6.2 mi Variable 2.3 mph - N/A   Mostly Cloudy
10:55 AM 55.4 °F - 51.8 °F 88% 29.83 in 6.2 mi Variable 3.5 mph - N/A   Mostly Cloudy
11:00 AM 56 °F - 51 °F 80% 29.85 in 8 mi 2.2 mph - -   Mostly Cloudy
11:25 AM 55.4 °F - 51.8 °F 88% 29.83 in 6.2 mi WSW 5.8 mph - N/A Rain Light Rain
11:31 AM 55.4 °F - 50.0 °F 82% 29.83 in 6.2 mi West 5.8 mph - N/A Rain Light Rain
11:55 AM 55.4 °F - 50.0 °F 82% 29.83 in 6.2 mi West 4.6 mph - N/A   Mostly Cloudy
12:01 PM 55.4 °F - 50.0 °F 82% 29.83 in 6.2 mi West 4.6 mph - N/A   Mostly Cloudy
12:25 PM 57.2 °F - 51.8 °F 82% 29.83 in 6.2 mi WSW 6.9 mph - N/A   Mostly Cloudy
12:55 PM 55.4 °F - 51.8 °F 88% 29.83 in 6.2 mi WSW 6.9 mph - N/A   Mostly Cloudy
1:16 PM 55.4 °F - 51.8 °F 88% 29.83 in 6.2 mi WSW 6.9 mph - N/A   Mostly Cloudy
1:21 PM 55.4 °F - 51.8 °F 88% 29.83 in 6.2 mi WSW 6.9 mph - N/A   Mostly Cloudy
1:25 PM 55.4 °F - 51.8 °F 88% 29.83 in 6.2 mi West 6.9 mph - N/A   Mostly Cloudy
1:55 PM 53.6 °F - 51.8 °F 94% 29.83 in 6.2 mi West 8.1 mph - N/A Rain Light Rain
2:00 PM 54 °F - 51 °F 86% 29.86 in 8 mi West 8.9 mph - - Rain Light Rain
2:25 PM 53.6 °F - 50.0 °F 88% 29.83 in 6.2 mi West 8.1 mph - N/A   Overcast
2:55 PM 53.6 °F - 50.0 °F 88% 29.83 in 6.2 mi West 8.1 mph - N/A   Mostly Cloudy
3:25 PM 53.6 °F - 50.0 °F 88% 29.83 in 5.6 mi West 6.9 mph - N/A Rain Light Rain
3:55 PM 53.6 °F - 50.0 °F 88% 29.86 in 5.6 mi West 6.9 mph - N/A   Mostly Cloudy
4:25 PM 51.8 °F - 50.0 °F 94% 29.86 in 5.6 mi West 6.9 mph - N/A   Mostly Cloudy
4:55 PM 51.8 °F - 50.0 °F 94% 29.86 in 6.2 mi WNW 8.1 mph - N/A Rain Light Rain
5:00 PM 52 °F - 50 °F 89% 29.86 in 6 mi WNW 8.9 mph - - Rain Light Rain
5:01 PM 51.8 °F - 50.0 °F 94% 29.86 in 1.9 mi WNW 8.1 mph - N/A Rain Light Rain
5:18 PM 51.8 °F - 50.0 °F 94% 29.86 in 2.8 mi WNW 5.8 mph - N/A Rain Light Rain
5:19 PM 51.8 °F - 50.0 °F 94% 29.86 in 2.8 mi WNW 5.8 mph - N/A Rain Light Rain
5:25 PM 50.0 °F - 50.0 °F 100% 29.86 in 5.6 mi WNW 5.8 mph - N/A Rain Light Rain
5:31 PM 51.8 °F - 50.0 °F 94% 29.86 in 5.6 mi WNW 6.9 mph - N/A Rain Light Rain
5:36 PM 50.0 °F - 50.0 °F 100% 29.86 in 5.6 mi WNW 6.9 mph - N/A Rain Light Rain
5:55 PM 50.0 °F - 50.0 °F 100% 29.86 in 4.3 mi WNW 5.8 mph - N/A Rain Light Rain
6:11 PM 50.0 °F - 50.0 °F 100% 29.86 in 4.3 mi WNW 4.6 mph - N/A Rain Light Rain
6:15 PM 50.0 °F - 50.0 °F 100% 29.86 in 4.3 mi WNW 4.6 mph - N/A Rain Light Rain
6:25 PM 50.0 °F - 50.0 °F 100% 29.86 in 4.3 mi WNW 5.8 mph - N/A Rain Light Rain
6:55 PM 50.0 °F - 50.0 °F 100% 29.86 in 4.3 mi West 6.9 mph - N/A Rain Light Rain
7:25 PM 50.0 °F - 50.0 °F 100% 29.86 in 3.7 mi WNW 5.8 mph - N/A Rain Light Rain
7:51 PM 50.0 °F - 48.2 °F 94% 29.86 in 1.9 mi West 5.8 mph - N/A Rain Light Rain
7:55 PM 50.0 °F - 48.2 °F 94% 29.86 in 1.9 mi West 5.8 mph - N/A Rain Light Rain
8:00 PM 49 °F - 49 °F 100% 29.87 in 2 mi West 6.7 mph - - Rain Light Rain
8:25 PM 48.2 °F - 48.2 °F 100% 29.86 in 1.9 mi WNW 5.8 mph - N/A Rain Light Rain
8:55 PM 48.2 °F - 48.2 °F 100% 29.86 in 1.9 mi WNW 8.1 mph - N/A Rain Light Rain
9:25 PM 48.2 °F - 48.2 °F 100% 29.86 in - WNW 8.1 mph - N/A Rain Light Rain
9:55 PM 48.2 °F - 48.2 °F 100% 29.86 in 1.9 mi WNW 8.1 mph - N/A Rain Light Rain
10:25 PM 48.2 °F - 48.2 °F 100% 29.86 in 1.9 mi WNW 8.1 mph - N/A Rain Light Rain
10:55 PM 48.2 °F - 48.2 °F 100% 29.89 in 1.4 mi NW 8.1 mph - N/A   Light Drizzle
11:00 PM 47 °F - 47 °F 100% 29.89 in 1 mi WNW 6.7 mph - - Rain Light Drizzle
11:12 PM 48.2 °F - 46.4 °F 93% 29.89 in 2.2 mi NW 6.9 mph - N/A   Light Drizzle
11:25 PM 48.2 °F - 48.2 °F 100% 29.89 in 2.5 mi NW 8.1 mph - N/A   Light Drizzle
11:55 PM 46.4 °F 42.4 °F 46.4 °F 100% 29.89 in 2.5 mi NW 8.1 mph - N/A   Light Drizzle